Weather History for GMMX - June, 2014

Change the Weather History Date:

Saturday, June 7, 2014

  Actual Average Record
Temperature  
Mean Temperature 71 °F -  
Max Temperature 86 °F 91 °F 104 °F (2001)
Min Temperature 56 °F 64 °F 35 °F (2004)
Cooling Degree Days 6    
Growing Degree Days 21 (Base 50)    
Moisture  
Dew Point 54 °F    
Average Humidity 56    
Maximum Humidity 88    
Minimum Humidity 19    
Precipitation  
Precipitation 0.00 in 0.00 in - ()
Sea Level Pressure  
Sea Level Pressure 30.03 in    
Wind  
Wind Speed 6 mph ()    
Max Wind Speed 16 mph    
Max Gust Speed -    
Visibility 6.1 miles    
Events      
Averages and records for this station are not official NWS values.
T = Trace of Precipitation, MM = Missing Value Source: Averaged Metar Reports

Daily Weather History Graph

Daily Weather History Graph

Search for Another Location

Airport or City:

Trip Planner

Search our weather history database for the weather conditions in past years. The results will help you decide how hot, cold, wet, or windy it might be!

Date:

Astronomy

Jun. 07, 2014 Rise Set
Actual Time 6:26 AM WEST 8:35 PM WEST
Civil Twilight 5:58 AM WEST 9:03 PM WEST
Nautical Twilight 5:24 AM WEST 9:37 PM WEST
Astronomical Twilight 4:48 AM WEST 10:13 PM WEST
Moon 2:59 PM WEST (6/7) 2:20 AM WEST (6/7)
Length of Visible Light 15h 04m
Length of Day
14h 08m
Waxing Gibbous, 65% of the Moon is Illuminated
Jun 7
Waxing Gibbous
Jun 13
Full
Jun 19
Last Quarter
Jun 27
New
Jul 5
First Quarter

Hourly Weather History & Observations

Time (WEST) Temp. Heat Index Dew Point Humidity Pressure Visibility Wind Dir Wind Speed Gust Speed Precip Events Conditions
12:00 AM 66.2 °F - 51.8 °F 60% 30.04 in - WSW 6.9 mph - N/A   Clear
12:30 AM 66.2 °F - 51.8 °F 60% 30.04 in - SW 8.1 mph - N/A   Clear
1:00 AM 65 °F - 53 °F 55% 30.00 in 6 mi WSW 8.1 mph - -  
1:00 AM 64.4 °F - 51.8 °F 64% 30.04 in - WSW 8.1 mph - N/A   Clear
1:30 AM 62.6 °F - 51.8 °F 68% 30.04 in - SW 8.1 mph - N/A   Clear
2:00 AM 62.6 °F - 51.8 °F 68% 30.01 in - SW 6.9 mph - N/A   Clear
2:30 AM 62.6 °F - 51.8 °F 68% 30.01 in - SW 6.9 mph - N/A   Clear
3:00 AM 62.6 °F - 51.8 °F 68% 30.01 in - SW 6.9 mph - N/A   Clear
3:30 AM 62.6 °F - 51.8 °F 68% 29.98 in - SW 5.8 mph - N/A   Clear
4:00 AM 61 °F - 52 °F 65% 29.96 in 6 mi SW 6.9 mph - -  
4:00 AM 60.8 °F - 51.8 °F 72% 29.98 in - SW 6.9 mph - N/A   Clear
4:30 AM 60.8 °F - 53.6 °F 77% 29.98 in 6.2 mi WSW 5.8 mph - N/A   Unknown
5:00 AM 59.0 °F - 51.8 °F 77% 29.98 in - WSW 4.6 mph - N/A   Clear
5:30 AM 57.2 °F - 51.8 °F 82% 29.98 in - West 4.6 mph - N/A   Clear
6:00 AM 57.2 °F - 51.8 °F 82% 30.01 in - West 4.6 mph - N/A   Clear
6:30 AM 57.2 °F - 53.6 °F 88% 30.01 in - WSW 4.6 mph - N/A   Clear
6:49 AM 57 °F - 54 °F 84% 30.01 in 6 mi WSW 5.8 mph - -  
7:00 AM 57.2 °F - 53.6 °F 88% 30.01 in - WSW 5.8 mph - N/A   Clear
7:30 AM 59.0 °F - 53.6 °F 82% 30.04 in - SW 8.1 mph - N/A   Clear
8:00 AM 60.8 °F - 55.4 °F 82% 30.04 in - WSW 5.8 mph - N/A   Clear
8:30 AM 62.6 °F - 55.4 °F 77% 30.04 in - WSW 4.6 mph - N/A   Clear
9:00 AM 64.4 °F - 55.4 °F 73% 30.06 in - West 3.5 mph - N/A   Clear
9:30 AM 66.2 °F - 55.4 °F 68% 30.06 in - Variable 3.5 mph - N/A   Clear
10:00 AM 68 °F - 55 °F 53% 30.02 in 6 mi South 2.3 mph - -  
10:00 AM 68.0 °F - 55.4 °F 64% 30.06 in - SW 3.5 mph - N/A   Clear
10:30 AM 69.8 °F - 55.4 °F 60% 30.06 in - West 3.5 mph - N/A   Clear
11:00 AM 71.6 °F - 55.4 °F 57% 30.06 in - Variable 3.5 mph - N/A   Clear
11:30 AM 73.4 °F - 55.4 °F 53% 30.06 in - NNW 4.6 mph - N/A   Clear
12:00 PM 75.2 °F - 55.4 °F 50% 30.06 in - Variable 2.3 mph - N/A   Clear
12:30 PM 75.2 °F - 55.4 °F 50% 30.06 in - Variable 3.5 mph - N/A   Clear
12:49 PM 77 °F - 55 °F 36% 29.99 in 6 mi WNW 4.6 mph - -  
1:00 PM 77.0 °F - 55.4 °F 47% 30.06 in - WNW 4.6 mph - N/A   Clear
1:30 PM 78.8 °F - 55.4 °F 44% 30.04 in - NNE 4.6 mph - N/A   Clear
2:00 PM 78.8 °F - 55.4 °F 44% 30.04 in - Variable 2.3 mph - N/A   Clear
2:30 PM 82.4 °F 81.7 °F 55.4 °F 39% 30.04 in - Variable 6.9 mph - N/A   Clear
3:30 PM 82.4 °F 81.4 °F 53.6 °F 37% 30.04 in - WNW 8.1 mph - N/A   Clear
4:00 PM 84 °F - 52 °F 23% 29.94 in 6 mi West 9.2 mph - -  
4:00 PM 84.2 °F - 51.8 °F 33% 30.04 in - WNW 8.1 mph - N/A   Clear
4:30 PM 84.2 °F - 51.8 °F 33% 30.04 in - WSW 6.9 mph - N/A   Clear
5:00 PM 86.0 °F - 51.8 °F 31% 30.01 in - West 5.8 mph - N/A   Clear
5:30 PM 86.0 °F - 50.0 °F 29% 30.01 in 6.2 mi West 8.1 mph - N/A   Partly Cloudy
6:30 PM 86.0 °F - 50.0 °F 29% 30.01 in 6.2 mi WSW 5.8 mph - N/A   Partly Cloudy
7:00 PM 85 °F - 50 °F 19% 29.93 in 6 mi WSW 11.5 mph - -   Scattered Clouds
7:00 PM 86.0 °F - 50.0 °F 29% 30.01 in 6.2 mi West 10.4 mph - N/A   Partly Cloudy
7:30 PM 86.0 °F - 50.0 °F 29% 30.04 in 6.2 mi West 9.2 mph - N/A   Partly Cloudy
8:00 PM 82.4 °F 81.4 °F 53.6 °F 37% 30.04 in - West 16.1 mph - N/A   Clear
8:30 PM 80.6 °F 80.5 °F 55.4 °F 42% 30.04 in - West 10.4 mph - N/A   Clear
9:00 PM 78.8 °F - 57.2 °F 47% 30.06 in - NNW 12.7 mph - N/A   Clear
9:30 PM 75.2 °F - 57.2 °F 53% 30.09 in - NW 13.8 mph - N/A   Clear
10:00 PM 73 °F - 57 °F 47% 30.04 in 6 mi NW 10.4 mph - -  
10:00 PM 73.4 °F - 57.2 °F 57% 30.09 in - NW 10.4 mph - N/A   Clear
10:30 PM 73.4 °F - 57.2 °F 57% 30.12 in - NNW 8.1 mph - N/A   Clear
11:00 PM 71.6 °F - 57.2 °F 60% 30.12 in - North 4.6 mph - N/A   Clear
11:30 PM 71.6 °F - 57.2 °F 60% 30.12 in - North 4.6 mph - N/A   Clear